This is the latest recevied weather packets stored in our database for station/object W0CHP-13. If no packets are shown the sender has not sent any weather packets the latest 10 day(s).
| Time | Temp. | Humidity | Pressure | Rain* | Wind** | Luminosity | Snow |
|---|---|---|---|---|---|---|---|
| 1777924398 | 21.11° C | 24% | 997.1 hPa | 0 mm | - | 329 W/m² | - |
| 1777923795 | 21.67° C | 22% | 997.1 hPa | 0 mm | - | 246 W/m² | - |
| 1777923197 | 22.22° C | 24% | 996.8 hPa | 0 mm | - | 266 W/m² | - |
| 1777922595 | 22.22° C | 24% | 996.4 hPa | 0 mm | - | 249 W/m² | - |
| 1777921997 | 22.78° C | 23% | 996.4 hPa | 0 mm | - | 307 W/m² | - |
| 1777921395 | 22.78° C | 24% | 996.1 hPa | 0 mm | - | 475 W/m² | - |
| 1777920798 | 22.78° C | 24% | 996.4 hPa | 0 mm | - | 370 W/m² | - |
| 1777920196 | 23.33° C | 26% | 996.1 hPa | 0 mm | - | 366 W/m² | - |
| 1777919598 | 23.89° C | 23% | 996.1 hPa | 0 mm | - | 412 W/m² | - |
| 1777918996 | 23.89° C | 23% | 996.1 hPa | 0 mm | - | 473 W/m² | - |
| 1777918398 | 25° C | 23% | 996.1 hPa | 0 mm | - | 460 W/m² | - |
| 1777917796 | 25° C | 25% | 996 hPa | 0 mm | - | 787 W/m² | - |
| 1777917195 | 25° C | 29% | 995.8 hPa | 0 mm | - | 712 W/m² | - |
| 1777916597 | 24.44° C | 29% | 995.8 hPa | 0 mm | - | 711 W/m² | - |
| 1777915995 | 24.44° C | 29% | 995.8 hPa | 0 mm | - | 529 W/m² | - |
| 1777915397 | 24.44° C | 30% | 995.8 hPa | 0 mm | - | 617 W/m² | - |
| 1777914796 | 24.44° C | 29% | 996 hPa | 0 mm | - | 625 W/m² | - |
| 1777914198 | 25° C | 29% | 995.8 hPa | 0 mm | - | 579 W/m² | - |
| 1777913596 | 25° C | 28% | 996 hPa | 0 mm | - | 594 W/m² | - |
| 1777912998 | 23.89° C | 31% | 995.8 hPa | 0 mm | - | 579 W/m² | - |
| 1777912397 | 23.89° C | 31% | 995.8 hPa | 0 mm | - | 524 W/m² | - |
| 1777911795 | 23.89° C | 32% | 995.8 hPa | 0 mm | - | 437 W/m² | - |
| 1777911197 | 24.44° C | 32% | 995.8 hPa | 0 mm | - | 495 W/m² | - |
| 1777910595 | 25.56° C | 30% | 995.6 hPa | 0 mm | - | 597 W/m² | - |
| 1777909997 | 24.44° C | 32% | 995.8 hPa | 0 mm | - | 647 W/m² | - |
* Rain latest hour (hover to see other rain measurements)
** Current wind speed in m/s (hover to see current wind gust speed)